GSAT0202 (GALILEO 6)

Last updated on July 14, 2020, 5:23 a.m. UTC

1 40129U 14050B   20195.53673488 -.00000109  00000-0  00000-0 0  9998
2 40129  50.6047 359.3686 1661560 101.0380 278.0727  1.85519660 40321
UTC
Height (km)
Latitude
Longitude
Inclination
Orbital Period
UTC large
Height (km)
Speed (km/s)
/
Latitude / Longitude
Inclination (degrees)
Orbital Period (minutes)
Azimuth
Elevation
Range (km)
Doppler Factor
iOS Compass Heading
iOS Angle

Next 30 passes for location: Hong Kong

Rise time Rise Azimuth (degrees) Set time Set Azimuth (degrees) Duration Max altitude (degrees)

No matching passes for this satellites